RH
52 49 45 39 30 20 19 30 30 28 25 23 22 20 17 17 17 20 13 15 19 15 16 21 23 20 20 19 21 20 16 16 14 13 12 19 21 18 22 24 23 21 22 22 22
34 45 41 32 24 17 29 30 27 25 23 22 20 18 16 20 28 12 14 14 14 15 25 14 13 16 15 18 19 19 18 16 11 14 14 13 22 16 25 22 22 22 21 23 25
35 42 31 24 20 25 31 29 25 23 23 23 20 17 16 20 17 12 14 14 14 16 17 14 13 13 15 17 16 14 19 11 14 14 17 19 18 21 24 24 17 19 19 23 25
30 27 24 20 23 33 32 26 24 24 22 22 18 16 16 27 18 14 14 14 14 20 15 12 12 14 15 16 16 20 12 14 15 16 20 19 16 20 21 21 14 17 16 20 24
27 25 23 22 31 33 30 25 24 24 23 21 18 15 18 14 12 15 15 15 17 15 13 12 12 11 14 13 16 18 15 15 15 17 20 18 20 21 18 14 14 16 20 19 22
29 23 24 27 32 31 28 25 24 23 22 20 18 16 20 16 15 16 16 16 14 14 13 13 13 13 14 15 18 17 19 17 14 14 15 22 19 19 15 11 14 15 18 21 21
27 25 27 31 31 30 27 26 24 23 22 19 18 16 14 14 15 16 16 16 16 15 14 16 15 15 16 14 16 17 18 13 11 14 16 20 20 19 14 12 12 13 14 18 19
26 30 33 31 30 28 26 25 24 23 21 20 18 20 15 16 17 16 16 16 17 17 18 19 17 16 16 17 15 18 14 18 17 17 18 21 16 10 8 10 10 12 11 12 16
30 32 31 30 27 26 26 25 23 22 22 20 21 16 14 15 16 15 16 14 15 17 19 18 17 17 19 18 13 13 16 12 11 17 17 21 18 12 10 11 12 11 10 8 10
33 31 29 28 28 29 26 24 26 25 24 22 18 16 13 12 17 17 17 16 14 15 16 18 16 18 16 15 16 13 13 12 13 12 20 19 17 12 10 10 10 10 9 9 10
31 31 29 28 29 27 27 29 22 20 20 14 14 12 13 14 16 15 15 15 14 15 16 15 17 14 10 11 13 16 17 16 13 13 19 17 15 13 11 10 10 9 9 9 10
31 30 29 29 28 27 27 17 24 30 18 17 18 16 17 16 14 13 16 16 15 15 13 16 16 13 15 16 18 16 17 16 12 17 21 17 19 16 12 11 13 13 13 13 13
32 31 30 30 29 30 26 26 33 31 19 18 16 16 16 15 15 13 14 14 15 14 13 16 12 16 16 15 17 15 16 17 17 16 15 19 17 12 10 10 11 11 11 12 14
33 33 31 32 30 29 25 26 30 32 19 18 20 18 18 16 18 16 15 15 15 16 14 15 16 18 18 17 16 20 17 18 19 24 22 17 22 12 10 9 11 11 13 14 15
31 30 30 32 32 24 34 29 34 26 26 18 19 17 16 17 17 19 18 16 17 15 17 15 15 18 19 18 18 18 22 21 23 25 23 22 24 12 9 10 10 11 12 14 13
27 30 29 31 33 36 30 30 30 27 19 22 19 20 19 18 18 19 18 17 18 18 16 18 18 19 18 20 20 19 21 20 24 25 28 20 22 13 10 12 11 11 12 14 13
24 28 31 32 28 30 30 28 25 20 17 22 22 20 19 19 19 20 20 21 20 21 18 18 20 21 21 23 23 22 21 20 27 32 21 24 24 16 12 11 11 13 13 14 14
27 32 34 35 34 32 29 23 25 15 16 22 22 22 22 20 20 20 20 20 20 21 20 19 18 21 21 22 22 22 23 20 27 18 17 23 26 16 12 10 10 12 13 15 16
33 40 43 43 33 30 24 24 15 15 19 22 23 23 20 22 21 20 19 17 17 19 20 19 18 22 22 20 22 26 26 22 23 18 23 17 14 13 10 10 10 14 15 17 18
38 36 39 41 35 32 25 24 18 17 23 23 20 18 18 20 21 19 13 16 21 21 19 18 21 22 25 23 23 24 21 25 24 30 26 16 16 16 13 12 13 16 18 18 20
42 32 50 43 35 28 29 21 19 18 23 22 17 18 17 18 18 16 15 19 20 23 21 20 21 22 24 25 21 24 24 25 24 23 26 26 19 13 14 13 14 15 18 19 20
46 32 57 42 33 25 26 23 28 22 24 25 25 20 18 18 20 19 18 17 21 22 24 20 23 25 19 21 20 21 22 21 26 23 22 24 24 11 13 14 14 15 18 17 20
36 36 52 48 35 34 28 29 28 28 25 26 26 26 23 22 25 21 22 26 28 25 24 22 24 30 21 24 22 24 20 21 20 22 29 32 26 13 13 13 14 19 19 19 22
42 36 48 44 40 34 27 28 29 34 28 26 26 27 28 27 23 24 27 34 29 27 34 26 29 30 31 25 22 28 25 23 26 32 30 28 24 20 18 21 20 21 22 23 25
47 39 46 46 44 39 29 28 32 33 32 30 32 30 28 28 28 30 27 30 35 43 32 30 37 30 28 28 29 31 32 30 31 28 32 28 27 23 22 25 24 25 26 28 28
57 51 46 42 46 40 40 30 32 27 31 32 34 29 29 32 27 30 30 30 29 37 36 35 41 36 40 32 31 31 29 29 29 30 29 28 28 20 24 27 32 32 32 32 31
67 60 51 54 45 41 35 35 37 30 37 36 32 32 37 33 34 33 34 34 33 38 37 38 41 43 48 31 35 43 29 26 25 25 26 31 24 21 32 36 37 37 35 36 37
Wind_Speed
8 8 7 8 6 5 5 4 4 5 5 6 7 6 5 3 4 6 2 2 2 5 1 2 5 4 4 2 2 3 7 10 13 14 12 3 5 5 2 10 5 10 13 5 17
10 8 9 8 6 6 6 4 5 4 6 7 7 6 7 3 8 7 2 2 3 1 3 6 7 5 7 3 3 4 9 13 10 11 12 12 8 14 6 11 14 14 10 8 17
9 9 8 8 7 7 6 5 5 4 6 7 7 7 6 3 9 4 2 3 3 1 4 5 6 7 9 4 6 4 9 11 12 8 10 13 13 12 14 18 17 17 18 18 19
9 9 8 8 8 7 6 4 5 6 6 7 6 7 6 5 2 5 1 2 3 1 4 5 6 9 6 8 3 8 14 8 10 6 6 12 13 14 16 24 20 9 12 19 22
8 9 8 9 9 7 6 5 6 7 7 7 6 6 5 9 0 4 1 1 1 3 5 6 9 8 9 5 6 13 10 8 10 10 12 13 17 16 21 21 18 18 12 15 21
8 8 9 9 8 7 8 8 7 7 8 8 5 5 7 12 5 4 2 2 2 4 3 5 5 5 8 7 6 7 10 15 12 12 10 11 15 6 15 12 14 19 19 17 21
7 8 8 8 8 9 9 9 9 8 9 8 6 4 8 8 3 3 2 2 1 3 4 2 3 5 3 7 4 8 11 14 13 8 8 6 14 16 21 14 15 15 18 20 21
9 8 8 8 9 10 10 9 11 11 10 8 6 5 9 2 3 3 4 2 2 0 1 1 3 2 5 3 5 6 10 6 6 7 3 3 18 14 11 8 16 17 18 18 21
9 7 9 8 10 10 11 11 13 11 8 7 5 7 10 3 4 4 4 5 3 3 1 2 5 6 3 7 10 9 9 13 9 6 4 8 22 15 16 19 20 18 20 18 19
7 7 7 8 9 11 11 11 8 3 4 3 6 6 7 2 4 4 3 4 5 3 5 6 6 7 7 7 9 14 16 16 15 7 8 17 26 27 21 18 21 20 19 18 20
7 7 7 8 9 10 9 3 5 5 9 9 3 4 3 4 3 5 4 4 5 6 11 5 8 10 12 11 12 12 14 16 17 7 5 17 23 26 23 16 13 12 13 14 14
7 7 7 9 10 9 7 6 4 3 7 9 7 4 2 1 4 6 3 5 6 9 3 7 12 7 5 4 7 11 14 15 13 2 4 16 25 24 13 6 8 9 10 11 13
8 8 7 8 7 5 4 2 1 4 6 3 3 5 4 6 6 3 5 1 8 11 10 13 12 2 4 11 9 11 11 14 14 15 16 12 12 3 6 3 11 15 14 14 14
9 8 6 4 4 4 3 3 1 2 5 8 5 4 4 2 4 1 1 2 3 7 7 10 3 3 5 9 9 13 6 6 10 10 7 8 6 8 6 8 10 12 15 15 14
8 7 6 6 3 4 3 3 3 2 4 4 4 2 3 5 2 4 1 3 8 8 4 2 4 5 9 7 3 6 6 9 10 10 10 4 4 4 3 6 8 12 11 14 13
8 8 5 3 5 3 4 2 2 4 5 4 4 4 5 5 3 3 3 3 2 6 10 14 1 4 4 3 5 9 10 13 7 5 4 5 3 7 2 6 4 10 11 13 17
7 7 6 5 1 4 5 3 4 6 2 5 2 3 3 3 4 4 5 7 5 4 4 6 7 3 3 5 5 7 10 5 5 5 4 4 5 13 13 7 7 8 8 15 16
5 7 7 5 5 5 4 4 7 3 1 2 2 3 4 4 4 4 4 6 4 6 7 4 4 5 6 2 5 6 4 5 6 8 14 5 6 3 6 10 3 3 11 16 17
5 4 3 4 5 5 4 7 4 2 2 3 3 4 6 4 3 5 6 5 1 6 4 5 3 3 1 1 3 4 4 4 8 15 6 7 8 10 7 3 4 12 16 17 15
3 5 5 6 6 3 6 8 3 1 2 1 5 3 4 6 5 4 3 4 3 0 1 4 8 2 3 2 4 6 5 5 5 5 9 9 14 10 12 12 12 13 17 14 12
4 3 3 7 6 5 8 7 4 4 4 5 5 5 7 4 6 6 4 4 2 3 3 3 4 1 3 7 7 5 4 5 4 6 7 12 6 8 15 20 10 12 12 11 11
2 3 2 10 6 4 9 4 2 4 4 6 4 8 8 3 5 5 6 2 3 4 3 2 5 9 13 5 2 8 12 11 9 12 9 13 18 15 5 7 7 15 12 11 11
2 0 1 3 7 9 4 3 3 6 7 5 6 6 2 4 5 8 4 4 2 3 1 3 4 7 4 2 3 5 3 10 13 14 19 15 14 17 20 21 20 18 16 10 11
2 4 3 3 2 6 10 10 7 4 5 5 2 3 5 6 7 4 5 2 3 3 1 1 9 13 13 17 17 19 18 15 15 12 19 19 31 24 24 24 21 15 12 14 13
3 2 1 5 9 11 7 2 11 7 6 6 5 11 8 7 8 11 11 6 5 5 4 3 9 14 17 19 19 21 24 22 23 25 23 28 27 26 20 12 9 13 15 16 13
2 3 3 1 1 12 12 10 13 7 6 6 9 4 10 10 10 6 5 5 8 5 4 2 8 12 18 20 21 23 23 22 24 25 25 25 24 7 9 10 11 14 17 15 13
3 2 3 5 6 8 11 10 8 9 3 4 6 8 8 7 4 3 4 8 9 8 9 9 8 11 13 10 14 17 16 12 14 14 16 17 19 16 11 11 12 17 15 14 17
Wind_Direction
242 254 255 254 249 239 217 236 277 301 304 307 314 320 317 287 194 201 208 38 299 284 231 193 207 212 233 215 268 287 267 268 280 289 293 93 261 186 302 265 210 198 257 102 142
234 248 250 249 242 217 214 234 279 297 302 309 309 314 327 255 224 212 155 3 1 277 223 242 255 223 258 240 228 248 275 282 308 311 299 306 266 281 236 235 243 232 197 159 164
240 246 242 236 226 210 223 238 276 288 297 302 304 314 321 236 246 119 175 5 9 292 275 274 267 263 268 267 234 253 260 302 299 314 300 284 273 261 260 261 261 244 227 184 192
239 240 234 226 213 218 234 255 279 283 296 298 301 319 302 237 273 131 167 352 350 260 267 278 257 252 263 261 220 264 268 282 290 295 275 267 279 265 253 259 277 289 259 185 196
231 233 226 215 214 225 241 259 271 283 296 292 299 319 292 233 219 156 189 335 319 273 286 289 274 273 267 296 278 249 283 296 274 270 265 275 261 264 267 265 262 259 242 237 204
224 225 218 213 223 231 253 264 270 282 289 284 287 305 261 263 111 144 175 198 283 277 291 283 311 319 285 270 257 342 285 277 279 279 264 261 272 264 265 257 253 241 234 234 217
227 227 223 222 238 251 261 272 273 282 285 281 274 303 261 288 157 179 203 211 253 294 283 300 290 260 347 263 272 276 287 286 252 248 263 297 262 235 257 264 250 250 238 228 232
231 222 232 228 251 263 266 274 283 283 279 264 260 276 271 191 174 215 207 197 172 20 112 160 252 278 266 328 243 267 260 278 153 185 182 243 286 291 297 288 269 250 249 238 233
231 227 228 240 253 268 277 281 284 283 261 242 260 244 271 143 204 199 219 246 185 148 138 196 254 279 207 254 278 200 288 309 315 208 286 224 293 294 309 296 272 269 273 265 241
227 235 249 255 266 274 279 288 281 246 230 226 261 249 182 174 150 180 184 195 234 209 227 233 245 252 225 261 286 320 307 305 303 308 215 276 279 291 298 295 286 284 276 261 268
224 243 251 266 267 274 278 219 216 203 212 232 321 245 128 125 159 214 196 207 226 233 260 192 270 259 297 320 314 301 293 292 300 352 298 277 290 297 310 310 307 313 308 282 263
240 245 255 266 276 267 242 241 12 360 280 223 257 283 258 318 252 206 193 227 210 259 243 246 255 325 14 337 288 284 286 289 307 56 302 292 301 294 290 30 12 354 356 353 333
244 249 259 279 272 231 246 210 265 352 256 181 223 251 227 212 256 212 211 241 256 269 254 262 290 46 314 291 277 279 280 295 303 320 280 305 276 346 90 85 54 45 38 36 24
249 251 263 282 211 192 210 194 100 46 269 159 192 162 174 202 221 62 192 285 232 289 300 273 33 301 280 279 288 290 7 315 293 312 314 3 297 309 19 82 80 55 49 45 36
249 249 248 216 345 210 133 148 116 72 268 133 141 106 154 224 69 140 133 181 261 264 244 333 287 283 286 319 320 304 327 289 295 282 303 147 254 244 319 41 44 33 52 30 20
250 242 243 236 229 188 166 133 72 229 241 130 128 173 191 190 177 128 189 214 325 273 242 265 108 269 281 291 256 311 280 253 268 255 242 111 275 282 287 18 3 35 29 9 8
249 237 223 213 120 182 162 186 226 246 123 146 148 185 235 173 186 208 204 206 240 276 207 202 211 167 234 270 201 250 288 302 212 210 303 148 265 256 305 304 359 11 4 7 359
226 206 213 206 175 166 185 222 244 44 272 100 138 176 235 173 191 205 227 250 196 241 274 295 235 194 151 289 315 319 306 298 302 306 308 144 247 265 334 312 144 25 351 3 7
170 187 203 194 188 170 230 222 308 31 79 177 169 231 184 205 262 225 226 282 81 205 274 298 242 124 177 288 293 112 252 8 286 265 274 241 247 265 302 170 324 17 357 7 21
179 212 196 195 177 187 231 243 269 160 160 262 252 238 233 171 222 211 257 118 150 280 310 2 284 120 109 233 217 256 346 265 204 287 294 293 300 264 289 301 358 351 359 12 11
203 225 154 171 161 214 229 232 232 201 202 226 263 243 247 244 252 266 280 126 160 142 221 290 238 167 192 207 270 205 235 218 305 283 285 301 280 25 316 300 317 331 352 346 345
199 232 134 159 194 207 230 225 42 193 201 237 274 269 264 221 258 254 259 239 125 170 226 174 303 280 279 120 264 277 284 282 261 278 259 287 289 290 337 354 299 322 347 326 337
249 206 206 187 219 211 198 229 247 204 213 199 229 243 266 238 240 237 233 90 137 204 297 155 223 298 280 210 186 239 218 254 274 285 266 277 264 312 304 303 326 344 336 330 332
243 206 159 210 276 262 215 232 214 218 229 217 218 206 209 229 230 258 241 128 159 195 10 182 259 260 274 287 306 298 292 274 266 271 282 269 291 300 310 318 328 343 338 320 325
207 245 11 195 218 222 217 230 216 199 221 215 209 229 217 243 241 240 246 219 198 154 190 249 263 275 280 287 290 287 283 280 274 272 273 289 293 303 319 360 347 326 335 325 323
228 208 191 312 352 207 205 218 225 195 188 207 236 215 223 238 244 298 243 233 269 166 224 181 276 297 284 275 273 281 279 277 269 271 273 280 285 319 341 337 327 330 325 315 312
191 225 275 137 200 204 210 226 223 227 187 286 230 226 228 246 346 323 285 279 272 261 250 244 275 302 285 294 308 285 276 259 254 257 276 282 294 307 334 323 318 318 313 315 320